{"data":{"norad_id":66569,"epoch":"2026-05-24T17:31:04.983456Z","epoch_age_seconds":98096,"freshness":"FRESH","line1":"1 66569U 25268N   26144.72991879  .00015777  00000+0  58151-3 0  9993","line2":"2 66569  43.0003 277.2350 0001549 264.1484  95.9191 15.27585329 29594","mean_motion":15.27585329,"eccentricity":0.0001549,"inclination_deg":43.0003,"raan_deg":277.235,"arg_perigee_deg":264.1484,"mean_anomaly_deg":95.9191,"bstar":0.00058151,"rev_number":2959,"period_min":94.266419862952,"perigee_km":481.97034388839,"apogee_km":484.0959343975,"semimajor_km":6861.1701391429,"source":"CELESTRAK","updated_at":"2026-05-25T13:38:21.281381Z"}}